#timestamp,LO_Frequency,Hit,StdDev 
1505030415.6,286047001.0,N,1.3
1505030435.4,286046998.7,N,1.6
1505030455.2,286046999.0,N,1.7
1505030475.1,286047001.1,N,1.6
1505030476.0,286047001.1,N,1.5
1505030495.8,286047002.6,N,1.5
1505030515.7,286047001.3,N,1.5
1505030535.5,286047003.2,N,1.5
1505030555.3,286047001.8,N,1.4
1505030575.2,286047002.1,N,1.4
1505030595.0,286047001.8,N,1.4
1505030595.9,286047001.8,N,1.3
1505030615.8,286047002.7,N,1.3
1505030635.6,286047002.4,N,1.3
1505030655.4,286047002.0,N,1.3
1505030675.3,286047001.6,N,1.2
1505030695.1,286047003.5,N,1.3
1505030715.9,286047005.9,Y,0.0
1505030735.7,286047002.4,P,0.3
1505030755.5,286046999.7,N,1.2
1505030775.4,286047001.9,N,1.0
1505030795.2,286047002.4,N,1.0
1505030815.0,286047001.8,N,0.9
1505030815.9,286047001.8,N,0.8
1505030835.8,286047003.0,Y,0.0
1505030855.6,286047006.7,P,2.5
1505030875.5,286047005.0,N,2.1
1505030895.3,286047007.0,P,2.1
1505030915.1,286047005.3,N,1.9
1505030935.9,286047005.8,Y,0.0
1505030955.7,286046996.9,P,4.1
1505030975.6,286046997.0,N,3.9
1505030995.4,286046996.9,N,3.6
1505031015.2,286046999.5,N,3.2
1505031035.1,286046999.4,N,2.9
1505031036.0,286046999.4,N,2.7
1505031055.8,286046997.2,N,2.6
1505031075.7,286046998.0,N,2.5
1505031095.5,286046998.7,N,2.3
1505031115.3,286046999.3,N,2.2
1505031135.2,286046997.0,N,2.2
1505031155.0,286046998.0,N,2.1
1505031155.9,286046998.0,N,2.1
1505031175.7,286046995.7,N,2.1
1505031195.6,286046995.5,N,2.2
1505031215.4,286046996.3,N,2.1
1505031235.3,286046993.5,Y,0.0
1505031255.1,286046997.6,P,0.3
1505031275.8,286046995.1,P,1.3
1505031295.7,286046996.3,N,1.2
1505031315.5,286046995.2,Y,0.0
1505031335.4,286046996.9,P,0.1
1505031355.2,286046997.6,P,0.4
1505031375.0,286046997.5,P,0.4
1505031375.9,286046997.5,Y,0.0
1505031395.8,286047002.7,P,2.8
1505031415.6,286047002.7,N,2.6
1505031435.5,286047002.2,N,2.3
1505031455.3,286047001.8,N,2.1
1505031475.1,286047003.6,N,2.1
1505031495.9,286047003.2,N,2.0
1505031515.7,286047001.7,N,1.9
1505031535.6,286047002.1,N,1.8
1505031555.4,286047002.2,N,1.7
1505031575.2,286047001.8,N,1.6
1505031595.1,286047001.9,N,1.5
1505031596.0,286047001.9,N,1.5
1505031615.8,286047002.1,N,1.4
1505031635.6,286046999.7,N,1.5
1505031655.5,286047002.0,N,1.4
1505031675.3,286047002.0,N,1.4
1505031695.2,286046999.8,N,1.4
1505031715.9,286046999.9,N,1.4
1505031735.7,286047000.2,N,1.4
1505031755.6,286047000.5,N,1.4
1505031775.4,286047000.0,N,1.4
1505031795.2,286047000.5,N,1.4
1505031815.1,286047001.4,N,1.4
1505031816.0,286047001.4,N,1.4
1505031835.8,286047001.5,N,1.3
1505031855.7,286047002.0,N,1.3
1505031875.5,286047001.4,N,1.3
1505031895.3,286047004.2,Y,0.0
1505031915.2,286046999.9,P,0.8
1505031935.0,286047001.0,N,0.6
1505031935.9,286047001.0,N,0.6
1505031955.8,286047000.5,N,0.5
1505031975.6,286046998.5,N,1.0
1505031995.4,286046998.4,N,1.1
1505032015.3,286047001.2,N,1.1
1505032035.1,286046998.2,N,1.2
1505032055.9,286047002.4,N,1.4
1505032075.7,286046999.8,N,1.3
1505032095.5,286047002.8,N,1.4
1505032115.4,286047004.2,N,1.7
1505032135.2,286047002.7,N,1.7
1505032155.1,286047000.3,N,1.7
1505032156.0,286047000.3,N,1.6
1505032175.8,286046998.3,N,1.7
1505032195.6,286046998.4,N,1.7
1505032215.5,286046999.6,N,1.7
1505032235.3,286046999.2,N,1.7
1505032255.2,286046996.5,N,1.8
1505032275.9,286046997.1,N,1.9
1505032295.7,286046998.1,N,1.9
1505032315.6,286047000.0,N,1.9
1505032335.4,286046998.7,N,1.8
1505032355.2,286046996.8,N,1.9
1505032375.1,286046997.0,N,1.9
1505032376.0,286046997.0,N,2.0
1505032395.8,286046999.6,N,1.9
1505032415.7,286047000.9,N,1.9
1505032435.5,286047001.2,N,1.9
1505032455.3,286046998.8,N,1.9
1505032475.2,286046998.2,N,1.9
1505032495.0,286046999.3,N,1.9
1505032495.9,286046999.3,N,1.9
1505032515.8,286046998.1,N,1.9
1505032535.6,286047000.0,N,1.9
1505032555.4,286046999.9,N,1.9
1505032575.3,286047000.1,N,1.9
1505032595.1,286047004.4,N,2.0
1505032615.9,286047004.0,N,2.1
1505032635.7,286047004.3,N,2.2
1505032655.5,286047006.5,N,2.4
1505032675.4,286047010.8,Y,0.0
1505032695.2,286047011.7,P,5.9
1505032715.0,286047013.4,N,6.0
1505032715.9,286047013.4,N,5.7
1505032735.8,286047011.3,N,5.1
1505032755.6,286047013.6,N,4.9
1505032775.5,286047013.8,N,4.7
1505032795.3,286047017.2,Y,0.0
1505032815.1,286047009.2,P,0.9
1505032835.9,286047008.4,P,1.1
1505032855.7,286047010.8,P,1.1
1505032875.6,286047011.4,Y,0.0
1505032895.4,286047002.1,P,3.9
1505032915.2,286046998.3,N,4.8
1505032935.1,286046996.3,N,5.2
1505032936.0,286046996.3,N,5.1
1505032955.8,286046997.5,N,4.8
1505032975.6,286046995.2,N,4.8
1505032995.5,286046997.7,N,4.5
1505033015.3,286046998.1,N,4.2
1505033035.2,286046999.0,N,4.0
1505033055.0,286046994.9,N,4.0
1505033055.9,286046994.9,N,4.0
1505033075.7,286046995.2,N,3.9
1505033095.6,286046997.6,N,3.8
1505033115.4,286046993.6,N,3.8
1505033135.3,286046991.8,N,4.0
1505033155.1,286046993.0,N,4.0
1505033175.8,286046989.1,N,4.3
1505033195.7,286046989.9,N,4.4
1505033215.5,286046988.7,N,4.6
1505033235.4,286046991.6,N,4.6
1505033255.2,286046986.9,N,4.9
1505033275.0,286046989.1,N,4.9
1505033275.9,286046989.1,N,5.0
1505033295.8,286046989.4,N,5.0
1505033315.6,286046989.3,N,5.0
1505033335.5,286046991.2,N,4.9
1505033355.3,286046988.5,N,5.0
1505033375.1,286046992.4,N,4.9
1505033395.9,286046993.0,N,4.8
1505033415.7,286046994.0,N,3.8
1505033435.5,286046997.1,N,3.5
1505033455.4,286046995.7,N,3.4
1505033475.2,286046991.9,N,3.4
1505033495.1,286046989.0,Y,0.0
1505033496.0,286046989.0,P,2.0
1505033515.8,286046996.1,N,2.9
1505033535.6,286046994.5,N,2.6
1505033555.5,286046991.5,Y,0.0
1505033575.3,286046997.1,P,2.0
1505033595.2,286046995.0,N,1.6
1505033615.0,286046998.8,N,2.1
1505033615.9,286046998.8,N,2.2
1505033635.7,286047003.2,N,3.2
1505033655.6,286047008.9,N,4.9
1505033675.4,286047011.8,N,6.2
1505033695.3,286047012.3,N,6.9
1505033715.1,286047011.8,N,7.1
1505033735.8,286047011.4,N,7.2
1505033755.7,286047013.3,N,7.4
1505033775.5,286047015.1,N,7.6
1505033795.4,286047015.4,N,7.8
1505033815.2,286047015.4,N,7.9
1505033835.0,286047015.0,N,7.9
1505033835.9,286047015.0,N,7.8
1505033855.8,286682718.1,Y,0.0
1505033875.6,286047005.4,P,1.2
1505033895.5,286047007.0,P,1.0
1505033915.3,286047006.6,P,0.8
1505033935.1,286047008.9,Y,0.0
1505033955.9,286047001.4,P,2.6
1505033975.7,286047002.9,N,2.2
1505033995.5,286047005.8,N,2.1
